GFSNE_925_thetae_336.txt.gz
Theta_e
343 338 339 339 335 333 336 347 345 342 342 344 345 345 342 340 335 333 329 328 326 320 319 316 316 317 317 316 316 316 316 316 315 316 318 323 333 340
340 344 335 338 335 332 330 329 331 338 340 344 344 343 342 339 337 329 330 329 326 322 320 316 316 316 316 317 317 317 316 316 315 315 316 322 328 328
344 343 344 339 337 333 330 329 329 333 339 343 343 343 340 337 332 329 330 330 328 326 322 316 314 315 316 317 317 317 317 314 315 315 315 317 336 338
346 345 343 341 338 334 331 328 327 327 342 339 336 338 338 334 330 329 329 328 325 324 322 318 318 317 316 316 316 317 317 314 315 315 315 315 316 323
352 346 345 344 342 335 328 325 323 332 340 342 336 335 334 331 327 327 330 329 321 323 322 319 319 318 318 317 317 317 317 315 315 315 315 315 315 315
350 349 347 346 345 339 331 327 324 329 340 338 337 334 333 332 331 330 328 325 323 322 322 321 320 318 318 318 318 318 317 316 316 315 315 315 315 315
350 349 350 348 346 343 338 327 323 327 338 336 334 332 331 331 331 329 328 325 323 323 322 322 322 322 322 320 319 319 318 317 317 316 316 316 315 315
347 344 350 349 345 344 336 327 322 324 328 333 332 331 332 331 331 328 325 324 324 325 323 324 322 323 321 323 322 320 319 317 318 317 316 316 316 316
346 339 349 348 342 343 334 329 327 326 330 328 329 331 333 333 331 325 322 323 324 326 326 325 324 323 322 322 323 321 320 320 319 318 316 315 314 313
339 342 347 343 341 339 334 330 329 329 324 326 327 328 331 332 326 323 322 324 324 323 323 322 321 323 322 322 321 322 321 321 320 319 317 316 315 315
349 346 343 340 341 336 333 330 329 325 316 318 326 326 325 324 324 323 323 322 322 324 327 326 324 324 322 322 322 322 322 320 320 319 318 318 317 316
346 340 338 342 343 336 331 328 324 320 316 322 325 324 324 325 325 321 322 322 322 321 325 326 324 322 320 323 321 321 321 321 320 320 319 317 317 317
338 337 341 343 342 338 333 328 322 319 319 324 325 325 322 318 319 320 320 323 321 323 324 324 324 323 323 321 322 322 321 320 318 317 316 317 317 316
339 339 342 341 340 337 331 327 321 324 321 319 320 320 315 315 315 314 315 318 320 322 326 325 322 322 321 319 320 319 319 319 318 317 316 316 316 314
339 339 340 341 339 336 329 328 325 332 327 324 322 323 322 324 324 323 322 317 317 318 322 325 325 323 322 321 320 320 318 316 318 317 315 315 314 314
340 338 339 341 339 339 331 330 327 333 331 326 324 323 323 325 324 326 325 325 323 323 324 323 324 323 323 320 320 319 318 317 318 317 315 315 314 314
337 336 336 339 341 338 332 330 331 326 327 325 324 321 326 326 326 326 326 325 325 325 325 325 325 324 321 319 319 318 316 316 318 317 315 314 314 313
337 335 335 337 337 337 333 328 328 328 324 322 319 322 322 324 323 326 325 324 324 323 323 323 324 322 320 318 318 315 315 315 316 314 315 314 314 313
337 337 336 336 333 333 330 328 329 326 329 322 318 322 323 322 323 322 321 319 321 322 322 322 321 319 315 311 314 315 315 315 315 314 315 315 314 313
338 336 335 334 333 333 330 328 328 323 323 320 320 322 320 321 324 321 319 320 321 321 320 319 319 319 318 315 315 316 315 314 314 314 315 315 314 314
336 337 336 335 334 332 328 326 325 323 324 323 321 321 322 322 323 319 319 320 318 316 316 317 317 316 319 317 315 314 313 315 315 315 314 314 314 314
337 337 336 334 333 331 329 328 328 327 326 321 323 323 323 321 320 320 320 319 317 317 315 315 314 314 313 313 313 313 313 314 314 313 312 311 312 312
334 335 335 332 332 330 328 327 328 325 322 323 324 323 323 322 321 317 316 317 316 316 313 314 314 313 313 314 314 314 314 315 313 312 310 309 309 309

GFSNE_925_thetae_339.txt.gz
Theta_e
347 343 341 340 337 335 336 346 344 343 341 345 345 344 344 344 338 327 325 327 324 320 319 317 315 316 316 316 316 316 316 316 315 315 315 317 323 325
348 344 341 338 336 334 332 337 339 340 341 344 344 343 343 341 337 333 326 327 326 322 321 318 314 315 316 317 317 317 317 315 314 315 315 314 323 335
347 342 345 340 337 335 333 330 330 332 337 340 343 343 342 341 338 336 328 329 328 326 324 318 315 315 316 316 316 316 316 314 315 315 315 315 315 317
351 346 345 342 341 336 331 329 328 329 333 339 341 339 340 340 337 332 329 330 329 326 324 321 316 317 316 316 316 316 316 315 315 315 315 315 315 315
355 350 346 341 343 340 333 329 326 325 330 339 336 336 338 337 333 330 328 329 328 323 322 320 319 317 317 317 317 317 317 316 316 315 315 315 315 316
355 351 342 338 345 344 335 332 326 324 337 338 336 334 335 334 330 328 327 329 327 322 321 321 321 320 318 317 318 317 317 317 317 316 315 315 315 315
356 352 348 344 347 346 338 335 328 323 336 337 335 333 332 332 330 328 330 327 325 323 322 321 321 322 321 321 319 318 318 317 317 317 317 316 316 316
356 350 342 343 347 346 338 335 330 321 332 337 334 333 333 332 331 331 328 326 322 322 323 323 322 322 321 321 323 321 319 318 317 318 317 316 315 314
351 347 342 341 342 347 341 333 327 321 323 326 332 330 331 331 331 330 326 323 323 325 324 324 324 324 322 322 321 321 321 319 319 319 317 316 315 315
352 349 338 335 341 342 342 333 329 326 327 329 328 328 328 330 331 331 327 322 324 324 324 322 322 321 323 322 321 321 322 320 320 319 318 317 316 316
351 337 336 340 347 343 342 331 330 328 326 324 324 326 326 329 331 328 323 324 321 323 327 326 324 324 323 322 322 322 322 321 321 320 319 318 318 318
347 342 343 347 347 341 337 331 330 328 324 317 323 325 324 324 324 322 322 321 321 321 324 325 324 322 321 320 321 321 321 321 320 320 318 316 317 317
342 343 346 343 340 340 338 332 331 328 321 317 324 324 324 323 324 323 320 322 321 321 323 324 323 322 321 320 320 320 320 320 319 318 316 316 316 317
343 344 342 340 339 343 339 334 331 324 319 322 324 324 323 318 316 316 318 319 321 321 325 325 325 322 321 319 319 319 319 319 318 318 317 316 316 315
340 339 339 341 340 340 339 334 326 321 320 321 322 322 320 316 317 317 315 314 315 316 316 319 323 322 323 321 320 319 319 316 316 317 317 315 315 314
339 339 340 340 341 338 335 329 324 324 324 322 323 323 323 323 324 324 324 324 323 322 321 322 324 323 323 322 319 319 319 318 315 317 317 316 314 314
340 340 340 340 340 335 331 329 327 328 333 331 325 324 322 323 326 325 325 325 325 325 324 326 324 324 323 321 319 318 316 315 314 316 315 314 314 313
337 336 335 336 337 337 332 329 327 326 332 333 324 323 321 326 325 324 326 326 324 324 324 325 324 324 321 319 318 318 317 314 315 315 314 314 314 313
337 337 337 336 335 334 332 329 328 329 325 323 321 320 322 322 322 322 323 323 321 321 321 322 323 321 315 312 316 314 315 315 314 314 314 314 314 314
336 337 336 336 335 334 333 331 328 328 328 327 319 320 322 322 323 321 321 320 319 321 321 320 319 318 318 316 315 316 314 314 314 315 314 314 314 314
337 336 336 336 335 334 332 329 328 327 326 325 325 320 320 320 322 321 320 319 320 318 317 316 317 316 318 318 315 313 313 314 314 313 312 311 312 313
337 336 336 336 334 333 331 329 327 326 323 323 324 321 323 321 322 322 319 319 318 316 316 315 314 314 313 312 312 313 312 313 313 313 310 309 309 309
334 333 334 334 333 332 331 326 326 324 326 324 322 323 322 322 321 320 320 319 317 316 314 314 314 313 313 313 313 313 314 314 314 311 309 308 308 308

GFSNE_925_thetae_342.txt.gz
Theta_e
345 344 341 341 338 334 332 338 344 349 347 342 344 343 343 343 343 339 326 323 323 319 319 317 315 316 316 316 316 317 316 316 314 314 314 315 319 332
349 346 342 338 336 335 334 330 337 341 344 338 342 343 342 342 341 331 326 325 325 321 321 318 314 315 316 316 316 316 316 314 314 315 315 315 315 315
350 346 342 341 342 341 337 333 330 331 337 335 338 342 342 341 336 331 331 326 326 325 323 320 316 315 315 316 316 316 316 315 315 315 315 315 315 315
351 347 344 344 339 338 341 339 330 329 330 334 336 339 340 340 338 337 329 329 330 329 326 323 318 317 318 318 317 317 316 316 316 316 316 315 315 315
354 351 349 344 339 340 341 341 332 328 327 331 335 336 337 338 337 336 330 329 328 328 324 322 321 319 317 317 318 317 317 317 317 317 316 316 315 315
356 355 352 346 342 344 344 342 333 326 325 333 334 333 334 335 335 329 329 326 328 325 321 321 321 321 320 320 319 318 318 318 317 317 317 316 316 316
358 356 354 346 340 340 345 343 337 328 326 335 334 332 333 332 330 331 328 328 327 324 322 321 321 321 322 321 321 321 319 318 317 317 318 317 315 314
358 356 356 349 339 341 346 344 339 333 325 333 335 334 334 334 333 331 328 327 326 323 321 322 323 322 322 320 322 321 321 319 318 317 318 317 316 315
355 354 354 348 343 344 346 344 336 336 325 321 334 336 337 337 334 331 329 326 323 323 323 323 323 323 324 321 321 320 320 320 319 319 319 318 317 316
357 356 353 346 343 342 346 342 335 329 322 322 325 331 330 329 331 330 329 324 322 323 324 325 323 323 322 322 322 321 321 320 319 320 320 319 318 318
353 350 348 345 343 338 341 340 334 327 323 325 329 327 326 327 329 330 327 323 322 321 324 325 324 323 323 322 321 322 321 321 320 321 320 319 318 317
348 347 346 342 336 337 339 340 333 329 327 326 324 325 325 326 329 330 329 323 320 322 323 325 323 322 322 319 319 319 320 320 321 320 320 317 316 315
350 346 344 339 342 345 342 341 334 329 325 321 321 325 324 324 323 322 320 319 320 320 323 323 323 321 320 320 319 319 319 319 319 319 318 317 316 316
339 339 338 340 343 340 339 338 331 329 325 319 323 324 323 322 322 322 320 321 321 320 323 323 325 323 321 320 320 319 319 319 318 316 317 317 316 315
341 339 340 341 340 339 341 335 329 327 322 320 323 323 323 321 317 318 317 317 318 318 319 318 320 323 321 321 321 319 318 318 317 316 317 317 315 314
339 339 338 339 340 340 338 331 329 326 321 320 322 323 322 319 315 316 318 318 319 318 317 318 319 323 323 322 321 319 318 319 314 314 316 316 314 314
339 339 339 340 340 338 335 332 327 323 320 320 320 321 322 322 322 323 324 324 324 324 324 324 325 324 323 323 321 319 317 315 314 314 315 314 314 314
339 339 339 339 339 338 333 330 327 324 326 325 325 324 322 324 325 325 323 323 325 323 324 324 324 323 322 318 316 316 316 315 315 314 313 314 315 315
338 337 336 336 336 335 336 331 328 326 328 329 326 322 322 324 323 323 324 325 323 322 322 321 322 322 320 319 316 315 315 314 315 314 314 314 314 314
337 337 338 338 336 334 333 331 328 325 325 323 321 322 323 322 323 322 321 322 320 319 320 320 319 318 319 319 317 315 314 313 314 314 313 312 311 312
336 336 336 336 335 334 332 330 329 327 327 325 323 321 324 323 322 321 320 319 319 319 318 317 316 317 316 316 315 313 313 313 313 313 311 311 311 312
333 335 335 335 335 333 332 329 328 327 327 324 324 324 320 320 321 320 320 319 320 318 315 315 315 314 313 313 313 313 313 313 313 312 309 308 310 311
332 332 333 334 334 333 331 329 328 326 326 325 324 321 321 322 322 321 320 319 318 316 315 314 313 312 313 313 313 314 314 314 313 310 308 306 307 306

GFSNE_925_thetae_345.txt.gz
Theta_e
351 348 346 346 344 339 338 342 343 344 344 346 345 343 344 344 344 341 334 326 323 320 319 317 315 314 315 315 316 316 316 315 314 315 315 315 315 315
350 350 346 343 340 336 335 337 342 342 342 341 344 341 342 342 342 341 333 325 323 319 320 318 314 314 314 316 316 315 316 315 316 316 315 315 315 316
351 350 348 342 341 339 338 337 337 337 339 342 339 340 341 341 341 339 330 328 326 321 322 319 316 316 317 317 317 316 316 316 317 316 316 316 315 315
354 350 349 345 342 342 340 337 336 337 336 340 340 339 342 341 342 336 334 330 331 327 325 323 318 318 319 318 319 318 317 317 317 317 316 316 316 315
355 353 352 348 347 345 340 340 337 335 336 336 336 337 338 341 340 340 335 331 332 331 328 325 322 318 317 317 318 318 318 317 317 317 317 317 316 315
357 356 354 353 350 349 345 343 339 334 334 334 334 336 338 339 340 339 335 332 330 329 323 324 322 321 321 320 320 319 318 318 318 317 318 317 316 314
355 357 356 356 354 351 343 341 342 333 334 335 334 337 338 338 338 336 335 332 331 330 326 324 325 324 324 322 322 321 321 319 318 317 318 318 316 315
355 357 356 355 355 353 344 341 343 339 333 334 334 336 340 340 338 335 334 331 329 327 326 325 324 325 325 325 322 321 320 319 318 318 318 319 317 316
358 355 356 355 352 352 345 340 344 344 334 332 332 336 341 339 338 335 334 332 329 326 325 326 326 326 326 325 321 321 320 320 319 318 318 319 318 318
360 361 359 356 352 351 346 344 346 345 335 329 327 334 340 339 338 337 335 332 328 327 326 325 326 326 327 327 322 321 321 321 320 319 319 319 319 318
355 353 355 353 351 348 344 343 344 342 337 330 324 330 331 329 331 332 331 329 329 327 323 326 328 327 327 327 325 321 320 321 320 320 321 319 319 317
352 351 350 348 346 344 341 341 343 339 336 325 328 328 327 326 327 331 331 331 330 326 327 326 326 324 323 323 324 324 323 320 320 320 320 319 317 318
347 348 346 344 345 344 339 341 340 339 335 326 329 328 329 328 329 330 331 329 325 323 325 326 324 323 323 323 323 323 321 322 322 322 321 319 317 316
346 343 341 339 339 340 342 340 337 338 330 326 327 327 327 327 326 324 321 322 324 324 321 324 326 326 325 323 322 323 322 322 321 319 319 319 318 317
340 341 339 343 341 340 339 338 335 330 326 323 325 326 326 326 324 321 320 321 321 321 323 324 327 326 326 325 323 323 321 321 319 318 318 319 318 317
340 340 339 338 339 339 339 337 329 327 325 326 325 326 323 321 320 320 319 318 317 318 316 316 317 321 327 326 325 322 320 318 317 317 318 318 317 317
339 339 338 339 338 336 333 331 327 326 326 324 324 323 322 320 315 316 320 320 323 324 324 325 326 327 327 326 322 321 320 319 318 318 317 316 316 316
341 341 340 338 337 336 334 331 330 328 323 323 323 323 324 324 322 323 323 324 323 324 324 326 326 326 325 321 317 319 320 319 318 317 317 317 317 317
339 339 338 337 338 336 336 332 329 326 323 321 321 324 324 325 324 324 324 323 323 323 323 325 325 321 319 319 319 316 319 319 317 317 317 317 315 315
339 338 337 337 337 336 335 333 331 327 326 329 328 322 324 324 324 325 325 325 322 321 322 321 322 320 319 318 318 319 315 316 317 317 316 313 313 313
336 336 336 337 336 335 333 332 330 328 327 328 325 322 323 323 324 324 325 322 320 321 322 320 321 319 320 318 318 317 317 313 314 315 312 312 314 314
334 336 335 335 335 335 333 331 329 327 324 323 322 322 322 323 324 324 321 319 320 321 320 319 319 319 318 317 317 317 317 317 315 310 307 308 312 312
333 333 334 335 335 333 332 330 329 327 326 325 323 322 323 322 322 321 320 322 322 321 319 319 317 317 317 317 316 317 316 314 313 312 312 309 306 306